Time,TemperatureF,DewpointF,PressureIn,WindDirection,WindDirectionDegrees,WindSpeedMPH,WindSpeedGustMPH,Humidity,HourlyPrecipIn,Conditions,Clouds,dailyrainin,SoftwareType,DateUTC
2013-04-27 00:03:00,44.0,36.0,30.32,North,5,0.0,0.0,74,0.00,,,0.00,,2013-04-27 04:03:00,
2013-04-27 00:13:00,44.0,36.0,30.32,North,5,0.0,0.0,74,0.00,,,0.00,,2013-04-27 04:13:00,
2013-04-27 00:23:00,43.0,36.0,30.32,North,5,0.0,0.0,76,0.00,,,0.00,,2013-04-27 04:23:00,
2013-04-27 00:33:00,43.0,36.0,30.32,North,5,0.0,1.0,77,0.00,,,0.00,,2013-04-27 04:33:00,
2013-04-27 00:43:00,43.0,36.0,30.32,North,5,0.0,1.0,77,0.00,,,0.00,,2013-04-27 04:43:00,
2013-04-27 00:52:00,42.0,36.0,30.32,North,5,0.0,2.0,78,0.00,,,0.00,,2013-04-27 04:52:00,
2013-04-27 01:02:00,42.0,36.0,30.32,North,5,0.0,2.0,79,0.00,,,0.00,,2013-04-27 05:02:00,
2013-04-27 01:12:00,42.0,36.0,30.32,North,5,0.0,2.0,79,0.00,,,0.00,,2013-04-27 05:12:00,
2013-04-27 01:22:00,41.0,35.0,30.32,North,5,0.0,0.0,80,0.00,,,0.00,,2013-04-27 05:22:00,
2013-04-27 01:32:00,40.0,35.0,30.32,North,5,0.0,0.0,81,0.00,,,0.00,,2013-04-27 05:32:00,
2013-04-27 01:42:00,40.0,35.0,30.32,North,5,0.0,0.0,81,0.00,,,0.00,,2013-04-27 05:42:00,
2013-04-27 01:52:00,40.0,35.0,30.32,North,5,0.0,0.0,83,0.00,,,0.00,,2013-04-27 05:52:00,
2013-04-27 02:02:00,39.0,35.0,30.32,North,5,0.0,0.0,84,0.00,,,0.00,,2013-04-27 06:02:00,
2013-04-27 02:12:00,39.0,35.0,30.32,North,5,0.0,0.0,84,0.00,,,0.00,,2013-04-27 06:12:00,
2013-04-27 02:22:00,39.0,35.0,30.32,North,5,0.0,0.0,85,0.00,,,0.00,,2013-04-27 06:22:00,
2013-04-27 02:32:00,39.0,35.0,30.31,North,5,0.0,0.0,85,0.00,,,0.00,,2013-04-27 06:32:00,
2013-04-27 02:42:00,39.0,35.0,30.31,North,5,0.0,0.0,85,0.00,,,0.00,,2013-04-27 06:42:00,
2013-04-27 02:52:00,39.0,35.0,30.31,North,5,0.0,0.0,86,0.00,,,0.00,,2013-04-27 06:52:00,
2013-04-27 03:02:00,39.0,35.0,30.31,North,5,0.0,0.0,86,0.00,,,0.00,,2013-04-27 07:02:00,
2013-04-27 03:11:00,39.0,35.0,30.31,North,5,0.0,0.0,86,0.00,,,0.00,,2013-04-27 07:11:00,
2013-04-27 03:21:00,39.0,35.0,30.31,North,5,0.0,0.0,87,0.00,,,0.00,,2013-04-27 07:21:00,
2013-04-27 03:32:00,38.0,34.0,30.31,North,5,0.0,0.0,87,0.00,,,0.00,,2013-04-27 07:32:00,
2013-04-27 03:42:00,38.0,34.0,30.31,North,5,0.0,0.0,87,0.00,,,0.00,,2013-04-27 07:42:00,
2013-04-27 03:52:00,38.0,34.0,30.31,North,5,0.0,0.0,86,0.00,,,0.00,,2013-04-27 07:52:00,
2013-04-27 04:02:00,37.0,34.0,30.31,North,5,0.0,0.0,87,0.00,,,0.00,,2013-04-27 08:02:00,
2013-04-27 04:12:00,37.0,34.0,30.31,North,5,0.0,0.0,87,0.00,,,0.00,,2013-04-27 08:12:00,
2013-04-27 04:21:00,37.0,34.0,30.30,North,5,0.0,0.0,88,0.00,,,0.00,,2013-04-27 08:21:00,
2013-04-27 04:33:00,37.0,34.0,30.30,North,5,0.0,0.0,89,0.00,,,0.00,,2013-04-27 08:33:00,
2013-04-27 04:42:00,37.0,34.0,30.30,North,5,0.0,0.0,89,0.00,,,0.00,,2013-04-27 08:42:00,
2013-04-27 04:52:00,36.0,33.0,30.30,North,5,0.0,0.0,89,0.00,,,0.00,,2013-04-27 08:52:00,
2013-04-27 05:01:00,36.0,33.0,30.30,North,5,0.0,0.0,89,0.00,,,0.00,,2013-04-27 09:01:00,
2013-04-27 05:11:00,36.0,33.0,30.30,North,5,0.0,0.0,89,0.00,,,0.00,,2013-04-27 09:11:00,
2013-04-27 05:22:00,36.0,33.0,30.30,North,5,0.0,0.0,89,0.00,,,0.00,,2013-04-27 09:22:00,
2013-04-27 05:33:00,36.0,33.0,30.30,North,5,0.0,0.0,90,0.00,,,0.00,,2013-04-27 09:33:00,
2013-04-27 05:43:00,36.0,33.0,30.30,North,5,0.0,0.0,90,0.00,,,0.00,,2013-04-27 09:43:00,
2013-04-27 05:53:00,35.0,32.0,30.30,North,5,0.0,0.0,89,0.00,,,0.00,,2013-04-27 09:53:00,
2013-04-27 06:03:00,35.0,32.0,30.30,North,5,0.0,0.0,90,0.00,,,0.00,,2013-04-27 10:03:00,
2013-04-27 06:12:00,35.0,32.0,30.30,North,5,0.0,0.0,90,0.00,,,0.00,,2013-04-27 10:12:00,
2013-04-27 06:22:00,35.0,32.0,30.30,North,5,0.0,0.0,90,0.00,,,0.00,,2013-04-27 10:22:00,
2013-04-27 06:33:00,35.0,33.0,30.31,North,5,0.0,0.0,91,0.00,,,0.00,,2013-04-27 10:33:00,
2013-04-27 06:42:00,35.0,33.0,30.31,North,5,0.0,0.0,91,0.00,,,0.00,,2013-04-27 10:42:00,
2013-04-27 06:52:00,35.0,33.0,30.31,North,5,0.0,0.0,92,0.00,,,0.00,,2013-04-27 10:52:00,
2013-04-27 07:02:00,36.0,34.0,30.31,North,5,0.0,0.0,92,0.00,,,0.00,,2013-04-27 11:02:00,
2013-04-27 07:12:00,36.0,34.0,30.31,North,5,0.0,0.0,92,0.00,,,0.00,,2013-04-27 11:12:00,
2013-04-27 07:22:00,37.0,35.0,30.31,North,5,0.0,0.0,92,0.00,,,0.00,,2013-04-27 11:22:00,
2013-04-27 07:32:00,38.0,36.0,30.31,North,10,0.0,0.0,91,0.00,,,0.00,,2013-04-27 11:32:00,
2013-04-27 07:42:00,38.0,36.0,30.31,North,10,0.0,0.0,91,0.00,,,0.00,,2013-04-27 11:42:00,
2013-04-27 07:52:00,41.0,37.0,30.32,North,355,0.0,0.0,85,0.00,,,0.00,,2013-04-27 11:52:00,
2013-04-27 08:01:00,43.0,37.0,30.32,North,360,0.0,0.0,80,0.00,,,0.00,,2013-04-27 12:01:00,
2013-04-27 08:11:00,43.0,37.0,30.32,North,360,0.0,0.0,80,0.00,,,0.00,,2013-04-27 12:11:00,
2013-04-27 08:22:00,45.0,39.0,30.31,North,11,0.0,0.0,78,0.00,,,0.00,,2013-04-27 12:22:00,
2013-04-27 08:32:00,48.0,39.0,30.31,NNE,24,0.0,0.0,72,0.00,,,0.00,,2013-04-27 12:32:00,
2013-04-27 08:42:00,48.0,39.0,30.31,NNE,24,0.0,0.0,72,0.00,,,0.00,,2013-04-27 12:42:00,
2013-04-27 08:52:00,49.0,38.0,30.31,NE,54,0.0,0.0,66,0.00,,,0.00,,2013-04-27 12:52:00,
2013-04-27 09:02:00,50.0,39.0,30.31,North,360,0.0,0.0,65,0.00,,,0.00,,2013-04-27 13:02:00,
2013-04-27 09:12:00,50.0,39.0,30.31,North,360,0.0,0.0,65,0.00,,,0.00,,2013-04-27 13:12:00,
2013-04-27 09:22:00,51.0,38.0,30.31,NE,41,2.0,5.0,62,0.00,,,0.00,,2013-04-27 13:22:00,
2013-04-27 09:32:00,52.0,39.0,30.31,North,351,4.0,7.0,61,0.00,,,0.00,,2013-04-27 13:32:00,
2013-04-27 09:42:00,52.0,39.0,30.31,North,351,4.0,7.0,61,0.00,,,0.00,,2013-04-27 13:42:00,
2013-04-27 09:52:00,54.0,40.0,30.30,NNE,15,2.0,5.0,59,0.00,,,0.00,,2013-04-27 13:52:00,
2013-04-27 10:02:00,59.0,41.0,30.30,East,96,2.0,5.0,51,0.00,,,0.00,,2013-04-27 14:02:00,
2013-04-27 10:11:00,59.0,41.0,30.30,East,96,2.0,5.0,51,0.00,,,0.00,,2013-04-27 14:11:00,
2013-04-27 10:22:00,61.0,40.0,30.30,ESE,114,0.0,5.0,45,0.00,,,0.00,,2013-04-27 14:22:00,
2013-04-27 10:32:00,64.0,40.0,30.29,NNW,348,2.0,6.0,42,0.00,,,0.00,,2013-04-27 14:32:00,
2013-04-27 10:42:00,64.0,40.0,30.29,NNW,348,2.0,6.0,42,0.00,,,0.00,,2013-04-27 14:42:00,
2013-04-27 10:52:00,65.0,37.0,30.29,West,265,1.0,6.0,36,0.00,,,0.00,,2013-04-27 14:52:00,
2013-04-27 11:01:00,65.0,41.0,30.29,East,88,1.0,4.0,41,0.00,,,0.00,,2013-04-27 15:01:00,
2013-04-27 11:12:00,65.0,41.0,30.29,East,88,1.0,4.0,41,0.00,,,0.00,,2013-04-27 15:12:00,
2013-04-27 11:22:00,64.0,40.0,30.29,SSW,209,3.0,8.0,41,0.00,,,0.00,,2013-04-27 15:22:00,
2013-04-27 11:33:00,65.0,39.0,30.29,South,184,2.0,7.0,39,0.00,,,0.00,,2013-04-27 15:33:00,
2013-04-27 11:43:00,65.0,39.0,30.29,South,184,2.0,7.0,39,0.00,,,0.00,,2013-04-27 15:43:00,
2013-04-27 11:53:00,66.0,39.0,30.29,NNW,327,2.0,7.0,37,0.00,,,0.00,,2013-04-27 15:53:00,
2013-04-27 12:03:00,67.0,40.0,30.29,North,5,2.0,5.0,37,0.00,,,0.00,,2013-04-27 16:03:00,
2013-04-27 12:13:00,67.0,40.0,30.29,North,5,2.0,5.0,37,0.00,,,0.00,,2013-04-27 16:13:00,
2013-04-27 12:23:00,68.0,40.0,30.28,ENE,75,2.0,6.0,36,0.00,,,0.00,,2013-04-27 16:23:00,
2013-04-27 12:33:00,69.0,39.0,30.28,SSW,209,3.0,8.0,34,0.00,,,0.00,,2013-04-27 16:33:00,
2013-04-27 12:42:00,69.0,39.0,30.28,SSW,209,3.0,8.0,34,0.00,,,0.00,,2013-04-27 16:42:00,
2013-04-27 12:52:00,66.0,38.0,30.27,SW,218,2.0,7.0,35,0.00,,,0.00,,2013-04-27 16:52:00,
2013-04-27 13:02:00,67.0,38.0,30.27,WSW,248,1.0,5.0,35,0.00,,,0.00,,2013-04-27 17:02:00,
2013-04-27 13:12:00,67.0,38.0,30.27,WSW,248,1.0,5.0,35,0.00,,,0.00,,2013-04-27 17:12:00,
2013-04-27 13:22:00,69.0,39.0,30.25,North,355,1.0,4.0,33,0.00,,,0.00,,2013-04-27 17:22:00,
2013-04-27 13:32:00,68.0,37.0,30.25,South,188,1.0,6.0,32,0.00,,,0.00,,2013-04-27 17:32:00,
2013-04-27 13:42:00,68.0,37.0,30.25,South,188,1.0,6.0,32,0.00,,,0.00,,2013-04-27 17:42:00,
2013-04-27 13:53:00,67.0,36.0,30.24,NNE,32,4.0,7.0,32,0.00,,,0.00,,2013-04-27 17:53:00,
2013-04-27 14:02:00,69.0,37.0,30.24,North,360,3.0,8.0,31,0.00,,,0.00,,2013-04-27 18:02:00,
2013-04-27 14:12:00,69.0,37.0,30.24,North,360,3.0,8.0,31,0.00,,,0.00,,2013-04-27 18:12:00,
2013-04-27 14:22:00,69.0,37.0,30.23,ESE,122,1.0,4.0,31,0.00,,,0.00,,2013-04-27 18:22:00,
2013-04-27 14:32:00,70.0,38.0,30.23,ESE,107,1.0,5.0,31,0.00,,,0.00,,2013-04-27 18:32:00,
2013-04-27 14:42:00,70.0,38.0,30.23,ESE,107,1.0,5.0,31,0.00,,,0.00,,2013-04-27 18:42:00,
2013-04-27 14:52:00,70.0,37.0,30.22,NE,43,3.0,9.0,30,0.00,,,0.00,,2013-04-27 18:52:00,
2013-04-27 15:02:00,70.0,37.0,30.22,NW,304,2.0,5.0,30,0.00,,,0.00,,2013-04-27 19:02:00,
2013-04-27 15:11:00,70.0,37.0,30.22,NW,304,2.0,5.0,30,0.00,,,0.00,,2013-04-27 19:11:00,
2013-04-27 15:22:00,72.0,36.0,30.21,SE,139,2.0,6.0,27,0.00,,,0.00,,2013-04-27 19:22:00,
2013-04-27 15:32:00,71.0,37.0,30.20,ENE,63,1.0,7.0,29,0.00,,,0.00,,2013-04-27 19:32:00,
2013-04-27 15:42:00,71.0,37.0,30.20,ENE,63,1.0,7.0,29,0.00,,,0.00,,2013-04-27 19:42:00,
2013-04-27 15:52:00,71.0,37.0,30.20,SE,142,3.0,8.0,29,0.00,,,0.00,,2013-04-27 19:52:00,
2013-04-27 16:02:00,71.0,36.0,30.19,WSW,243,2.0,5.0,28,0.00,,,0.00,,2013-04-27 20:02:00,
2013-04-27 16:11:00,71.0,36.0,30.19,WSW,243,2.0,5.0,28,0.00,,,0.00,,2013-04-27 20:11:00,
2013-04-27 16:22:00,71.0,33.0,30.18,SW,227,4.0,9.0,25,0.00,,,0.00,,2013-04-27 20:22:00,
2013-04-27 16:32:00,70.0,34.0,30.17,South,188,3.0,7.0,26,0.00,,,0.00,,2013-04-27 20:32:00,
2013-04-27 16:42:00,70.0,34.0,30.17,South,188,3.0,7.0,26,0.00,,,0.00,,2013-04-27 20:42:00,
2013-04-27 16:52:00,69.0,35.0,30.17,South,188,3.0,7.0,29,0.00,,,0.00,,2013-04-27 20:52:00,
2013-04-27 17:02:00,68.0,35.0,30.17,SW,229,2.0,5.0,30,0.00,,,0.00,,2013-04-27 21:02:00,
2013-04-27 17:12:00,68.0,35.0,30.17,SW,229,2.0,5.0,30,0.00,,,0.00,,2013-04-27 21:12:00,
2013-04-27 17:22:00,69.0,35.0,30.16,SSE,161,2.0,7.0,29,0.00,,,0.00,,2013-04-27 21:22:00,
2013-04-27 17:33:00,67.0,36.0,30.16,WSW,246,1.0,7.0,32,0.00,,,0.00,,2013-04-27 21:33:00,
2013-04-27 17:43:00,67.0,36.0,30.16,WSW,246,1.0,7.0,32,0.00,,,0.00,,2013-04-27 21:43:00,
2013-04-27 17:53:00,67.0,36.0,30.16,NNE,27,1.0,5.0,32,0.00,,,0.00,,2013-04-27 21:53:00,
2013-04-27 18:03:00,66.0,34.0,30.16,SSE,162,3.0,7.0,31,0.00,,,0.00,,2013-04-27 22:03:00,
2013-04-27 18:13:00,66.0,34.0,30.16,SSE,162,3.0,7.0,31,0.00,,,0.00,,2013-04-27 22:13:00,
2013-04-27 18:23:00,65.0,34.0,30.16,SSE,155,1.0,6.0,31,0.00,,,0.00,,2013-04-27 22:23:00,
2013-04-27 18:32:00,64.0,35.0,30.16,South,186,4.0,9.0,34,0.00,,,0.00,,2013-04-27 22:32:00,
2013-04-27 18:42:00,64.0,35.0,30.16,South,186,4.0,9.0,34,0.00,,,0.00,,2013-04-27 22:42:00,
2013-04-27 18:52:00,62.0,35.0,30.16,South,173,3.0,9.0,37,0.00,,,0.00,,2013-04-27 22:52:00,
2013-04-27 19:02:00,61.0,35.0,30.17,East,94,2.0,7.0,37,0.00,,,0.00,,2013-04-27 23:02:00,
2013-04-27 19:12:00,61.0,35.0,30.17,East,94,2.0,7.0,37,0.00,,,0.00,,2013-04-27 23:12:00,
2013-04-27 19:22:00,60.0,34.0,30.17,ESE,115,2.0,9.0,38,0.00,,,0.00,,2013-04-27 23:22:00,
2013-04-27 19:32:00,59.0,35.0,30.17,SW,228,1.0,5.0,40,0.00,,,0.00,,2013-04-27 23:32:00,
2013-04-27 19:42:00,59.0,35.0,30.17,SW,228,1.0,5.0,40,0.00,,,0.00,,2013-04-27 23:42:00,
2013-04-27 19:52:00,58.0,34.0,30.17,WSW,254,1.0,4.0,41,0.00,,,0.00,,2013-04-27 23:52:00,
2013-04-27 20:01:00,58.0,35.0,30.17,SSW,212,0.0,5.0,42,0.00,,,0.00,,2013-04-28 00:01:00,
2013-04-27 20:12:00,58.0,35.0,30.17,SSW,212,0.0,5.0,42,0.00,,,0.00,,2013-04-28 00:12:00,
2013-04-27 20:22:00,57.0,35.0,30.17,SW,227,0.0,5.0,44,0.00,,,0.00,,2013-04-28 00:22:00,
2013-04-27 20:32:00,56.0,34.0,30.18,SSW,207,1.0,3.0,44,0.00,,,0.00,,2013-04-28 00:32:00,
2013-04-27 20:43:00,56.0,34.0,30.18,SSW,207,1.0,3.0,44,0.00,,,0.00,,2013-04-28 00:43:00,
2013-04-27 20:52:00,55.0,35.0,30.18,SSW,204,0.0,2.0,46,0.00,,,0.00,,2013-04-28 00:52:00,
2013-04-27 21:02:00,54.0,35.0,30.18,West,271,0.0,4.0,48,0.00,,,0.00,,2013-04-28 01:02:00,
2013-04-27 21:11:00,54.0,35.0,30.18,West,271,0.0,4.0,48,0.00,,,0.00,,2013-04-28 01:11:00,
2013-04-27 21:22:00,54.0,36.0,30.19,SSE,167,1.0,2.0,50,0.00,,,0.00,,2013-04-28 01:22:00,
2013-04-27 21:32:00,53.0,35.0,30.19,South,191,0.0,1.0,50,0.00,,,0.00,,2013-04-28 01:32:00,
2013-04-27 21:42:00,53.0,35.0,30.19,South,191,0.0,1.0,50,0.00,,,0.00,,2013-04-28 01:42:00,
2013-04-27 21:52:00,53.0,37.0,30.20,SSE,148,0.0,0.0,54,0.00,,,0.00,,2013-04-28 01:52:00,
2013-04-27 22:02:00,51.0,35.0,30.20,SSE,152,1.0,2.0,55,0.00,,,0.00,,2013-04-28 02:02:00,
2013-04-27 22:12:00,51.0,35.0,30.20,SSE,152,1.0,2.0,55,0.00,,,0.00,,2013-04-28 02:12:00,
2013-04-27 22:22:00,51.0,36.0,30.20,SSE,164,0.0,2.0,57,0.00,,,0.00,,2013-04-28 02:22:00,
2013-04-27 22:32:00,50.0,35.0,30.21,SSE,163,0.0,3.0,57,0.00,,,0.00,,2013-04-28 02:32:00,
2013-04-27 22:42:00,50.0,35.0,30.21,SSE,163,0.0,3.0,57,0.00,,,0.00,,2013-04-28 02:42:00,
2013-04-27 22:52:00,50.0,35.0,30.21,South,178,1.0,2.0,56,0.00,,,0.00,,2013-04-28 02:52:00,
2013-04-27 23:01:00,50.0,35.0,30.21,SE,134,0.0,2.0,57,0.00,,,0.00,,2013-04-28 03:01:00,
2013-04-27 23:11:00,50.0,35.0,30.21,SE,134,0.0,2.0,57,0.00,,,0.00,,2013-04-28 03:11:00,
2013-04-27 23:22:00,50.0,36.0,30.21,South,173,0.0,1.0,58,0.00,,,0.00,,2013-04-28 03:22:00,
2013-04-27 23:33:00,49.0,35.0,30.21,South,172,0.0,2.0,58,0.00,,,0.00,,2013-04-28 03:33:00,
2013-04-27 23:43:00,49.0,35.0,30.21,South,172,0.0,2.0,58,0.00,,,0.00,,2013-04-28 03:43:00,
2013-04-27 23:53:00,48.0,35.0,30.21,South,172,0.0,2.0,60,0.00,,,0.00,,2013-04-28 03:53:00,